year,month,rank_dEF_12,nstocks,ret_vw
1976,3,1,21,-3.6496
1976,3,2,27,-2.3431
1976,3,3,19,1.1779
1976,3,4,29,5.8982
1976,3,5,23,-0.6710
1976,3,6,20,1.3213
1976,3,7,20,2.2992
1976,3,8,24,2.4188
1976,3,9,22,6.6597
1976,3,10,29,4.0959
1976,4,1,56,-1.9048
1976,4,2,58,-4.2951
1976,4,3,49,-0.9502
1976,4,4,61,-2.2736
1976,4,5,48,-0.5264
1976,4,6,49,0.1739
1976,4,7,49,-3.4177
1976,4,8,52,-1.8046
1976,4,9,46,-0.9447
1976,4,10,60,-3.5369
1976,5,1,99,0.6019
1976,5,2,92,-1.2472
1976,5,3,87,-0.7348
1976,5,4,95,-1.7858
1976,5,5,87,-1.8793
1976,5,6,90,0.8288
1976,5,7,88,-2.9937
1976,5,8,94,-1.2307
1976,5,9,86,-2.0855
1976,5,10,108,-2.6116
1976,6,1,139,6.6357
1976,6,2,130,5.8815
1976,6,3,116,4.7216
1976,6,4,131,4.1344
1976,6,5,125,4.1735
1976,6,6,122,4.2873
1976,6,7,119,5.8050
1976,6,8,128,3.0196
1976,6,9,123,4.4225
1976,6,10,138,3.9819
1976,7,1,185,-1.5370
1976,7,2,164,-2.4111
1976,7,3,148,-0.3705
1976,7,4,161,-1.2770
1976,7,5,155,-0.6414
1976,7,6,154,-0.7181
1976,7,7,156,-2.5499
1976,7,8,165,-1.1434
1976,7,9,162,-3.0322
1976,7,10,172,-0.6932
1976,8,1,218,-2.1429
1976,8,2,195,-1.9193
1976,8,3,181,0.3348
1976,8,4,191,0.1827
1976,8,5,184,0.5377
1976,8,6,190,-0.6295
1976,8,7,197,0.2945
1976,8,8,202,-1.1531
1976,8,9,200,-0.8331
1976,8,10,193,-0.9268
1976,9,1,242,2.5114
1976,9,2,221,3.2168
1976,9,3,201,1.8124
1976,9,4,211,0.9545
1976,9,5,201,2.3608
1976,9,6,217,2.9518
1976,9,7,226,1.9317
1976,9,8,227,2.6775
1976,9,9,220,3.1539
1976,9,10,215,4.4068
1976,10,1,267,-3.8188
1976,10,2,252,-3.3223
1976,10,3,227,-2.7644
1976,10,4,234,-2.0917
1976,10,5,231,-2.2565
1976,10,6,244,-2.7311
1976,10,7,249,-2.7545
1976,10,8,255,-1.8856
1976,10,9,253,-2.2171
1976,10,10,244,-2.0525
1976,11,1,285,3.2328
1976,11,2,269,1.6949
1976,11,3,250,-1.5491
1976,11,4,257,-0.3742
1976,11,5,250,-0.1245
1976,11,6,262,-0.3382
1976,11,7,267,1.2536
1976,11,8,274,0.8795
1976,11,9,267,1.9167
1976,11,10,276,2.0070
1976,12,1,309,7.7298
1976,12,2,290,5.4934
1976,12,3,277,5.4086
1976,12,4,277,4.5529
1976,12,5,267,4.2497
1976,12,6,279,5.1126
1976,12,7,289,4.0265
1976,12,8,286,5.2902
1976,12,9,293,6.2208
1976,12,10,306,8.5521
1977,1,1,340,-2.5477
1977,1,2,314,-4.6734
1977,1,3,305,-5.4797
1977,1,4,305,-5.8369
1977,1,5,294,-4.6750
1977,1,6,310,-5.5211
1977,1,7,309,-5.3900
1977,1,8,311,-4.7353
1977,1,9,326,-5.2703
1977,1,10,326,-2.9617
1977,2,1,351,-2.3608
1977,2,2,341,-2.5010
1977,2,3,327,-1.8330
1977,2,4,329,-1.6895
1977,2,5,313,-1.2227
1977,2,6,328,-1.6384
1977,2,7,328,-1.2820
1977,2,8,330,-1.7710
1977,2,9,353,-2.7534
1977,2,10,349,-2.6494
1977,3,1,353,-0.4403
1977,3,2,333,-0.9317
1977,3,3,323,-2.2155
1977,3,4,327,-2.1000
1977,3,5,314,-1.6525
1977,3,6,322,-0.7421
1977,3,7,333,-1.1652
1977,3,8,323,-1.2122
1977,3,9,350,-0.8847
1977,3,10,354,-1.1352
1977,4,1,357,0.2256
1977,4,2,335,1.1132
1977,4,3,334,-0.6652
1977,4,4,328,-0.8177
1977,4,5,313,-1.0081
1977,4,6,325,-0.7254
1977,4,7,335,-0.0076
1977,4,8,320,1.5516
1977,4,9,350,2.5706
1977,4,10,362,2.6390
1977,5,1,356,-2.3905
1977,5,2,341,-1.7649
1977,5,3,337,-2.4741
1977,5,4,332,-2.4949
1977,5,5,319,-0.9560
1977,5,6,332,-1.4978
1977,5,7,331,-1.1877
1977,5,8,327,-1.1683
1977,5,9,365,-1.0409
1977,5,10,367,-0.6882
1977,6,1,329,4.6563
1977,6,2,342,2.9986
1977,6,3,341,4.0141
1977,6,4,334,4.3813
1977,6,5,317,5.1504
1977,6,6,329,5.1931
1977,6,7,319,5.5828
1977,6,8,324,4.6961
1977,6,9,366,4.5556
1977,6,10,374,5.1372
1977,7,1,331,-3.9375
1977,7,2,347,-3.0259
1977,7,3,352,-2.3427
1977,7,4,338,-2.0734
1977,7,5,327,-1.5505
1977,7,6,337,-1.2389
1977,7,7,334,-0.9366
1977,7,8,335,-1.4977
1977,7,9,376,-2.3380
1977,7,10,389,-2.7762
1977,8,1,331,-3.1400
1977,8,2,347,-1.6360
1977,8,3,344,-1.0989
1977,8,4,336,-0.8017
1977,8,5,326,-1.4495
1977,8,6,326,-0.0628
1977,8,7,327,-0.8011
1977,8,8,330,-1.1247
1977,8,9,370,-2.0461
1977,8,10,381,-1.9702
1977,9,1,331,-1.8385
1977,9,2,345,-1.3616
1977,9,3,348,-0.7150
1977,9,4,335,-0.2971
1977,9,5,326,-0.2364
1977,9,6,326,-0.0484
1977,9,7,333,-0.2635
1977,9,8,336,0.8002
1977,9,9,374,-0.0636
1977,9,10,392,0.2455
1977,10,1,333,-3.9610
1977,10,2,344,-4.2910
1977,10,3,352,-5.1734
1977,10,4,339,-4.7108
1977,10,5,324,-3.8201
1977,10,6,313,-3.9051
1977,10,7,341,-3.8177
1977,10,8,349,-4.1356
1977,10,9,381,-3.7974
1977,10,10,392,-3.7026
1977,11,1,333,5.3961
1977,11,2,340,3.8987
1977,11,3,352,3.2152
1977,11,4,344,3.8454
1977,11,5,317,4.5204
1977,11,6,312,2.9262
1977,11,7,346,4.4765
1977,11,8,353,4.0987
1977,11,9,376,5.1661
1977,11,10,391,6.4148
1977,12,1,342,1.1192
1977,12,2,348,-0.0303
1977,12,3,365,0.2814
1977,12,4,344,0.3182
1977,12,5,339,-0.0480
1977,12,6,315,0.9053
1977,12,7,354,0.8624
1977,12,8,372,0.2296
1977,12,9,392,0.3137
1977,12,10,412,1.2597
1978,1,1,350,-4.4008
1978,1,2,346,-5.6806
1978,1,3,364,-6.0776
1978,1,4,350,-5.9693
1978,1,5,333,-5.9554
1978,1,6,307,-5.6777
1978,1,7,355,-6.2268
1978,1,8,362,-6.6742
1978,1,9,382,-6.7295
1978,1,10,419,-5.9302
1978,2,1,363,-2.9199
1978,2,2,344,-3.4388
1978,2,3,367,-3.0913
1978,2,4,347,-2.9875
1978,2,5,328,-2.1545
1978,2,6,306,-0.7848
1978,2,7,350,-1.1995
1978,2,8,363,-0.8730
1978,2,9,381,-1.0910
1978,2,10,415,0.1639
1978,3,1,362,4.5678
1978,3,2,351,3.9978
1978,3,3,371,2.8344
1978,3,4,347,2.2947
1978,3,5,332,2.9665
1978,3,6,308,1.4396
1978,3,7,348,2.3107
1978,3,8,373,2.9143
1978,3,9,384,3.8988
1978,3,10,413,5.4935
1978,4,1,378,6.6473
1978,4,2,365,8.8462
1978,4,3,385,8.6923
1978,4,4,361,9.2456
1978,4,5,346,8.3232
1978,4,6,320,9.5878
1978,4,7,364,9.1946
1978,4,8,385,9.1749
1978,4,9,401,10.6781
1978,4,10,427,10.1026
1978,5,1,378,4.4086
1978,5,2,360,1.8454
1978,5,3,375,1.8996
1978,5,4,366,2.3283
1978,5,5,346,2.1222
1978,5,6,314,0.5482
1978,5,7,363,1.3297
1978,5,8,389,1.9917
1978,5,9,401,2.8322
1978,5,10,434,5.7182
1978,6,1,382,-3.2388
1978,6,2,384,-2.1810
1978,6,3,397,-1.9124
1978,6,4,384,-2.2629
1978,6,5,356,-1.0520
1978,6,6,318,-1.4195
1978,6,7,376,-0.8111
1978,6,8,398,-1.1985
1978,6,9,413,-0.8680
1978,6,10,449,-0.0270
1978,7,1,390,6.0101
1978,7,2,379,5.7005
1978,7,3,398,5.9828
1978,7,4,389,6.0220
1978,7,5,360,5.8436
1978,7,6,324,6.2851
1978,7,7,378,5.1362
1978,7,8,396,6.2062
1978,7,9,405,7.1746
1978,7,10,448,9.1716
1978,8,1,417,3.2601
1978,8,2,416,3.7243
1978,8,3,434,3.9511
1978,8,4,414,3.8108
1978,8,5,387,3.0161
1978,8,6,360,3.4159
1978,8,7,410,2.9732
1978,8,8,425,3.7569
1978,8,9,438,4.0893
1978,8,10,479,6.1155
1978,9,1,430,0.7525
1978,9,2,428,-0.1078
1978,9,3,447,0.1363
1978,9,4,432,-0.1886
1978,9,5,405,-0.5052
1978,9,6,378,-1.9297
1978,9,7,418,-0.8844
1978,9,8,444,-1.6194
1978,9,9,456,-1.4007
1978,9,10,492,-3.0022
1978,10,1,442,-15.1685
1978,10,2,448,-12.8553
1978,10,3,458,-10.8396
1978,10,4,427,-9.6462
1978,10,5,409,-9.1302
1978,10,6,391,-8.6352
1978,10,7,431,-9.1246
1978,10,8,462,-10.9403
1978,10,9,462,-13.2258
1978,10,10,508,-16.8199
1978,11,1,464,4.1943
1978,11,2,467,3.4400
1978,11,3,469,3.2564
1978,11,4,433,3.1478
1978,11,5,430,2.6377
1978,11,6,412,2.8312
1978,11,7,446,3.1591
1978,11,8,477,3.5568
1978,11,9,482,4.3017
1978,11,10,526,6.1808
1978,12,1,486,0.6912
1978,12,2,485,0.5999
1978,12,3,484,0.6324
1978,12,4,455,1.3692
1978,12,5,443,1.5321
1978,12,6,433,2.4579
1978,12,7,466,1.1608
1978,12,8,502,1.0247
1978,12,9,493,1.9826
1978,12,10,539,1.5256
1979,1,1,500,9.2794
1979,1,2,501,6.3593
1979,1,3,491,5.1269
1979,1,4,481,4.6832
1979,1,5,445,4.1396
1979,1,6,449,3.8504
1979,1,7,475,3.8148
1979,1,8,513,5.3327
1979,1,9,499,5.1665
1979,1,10,547,7.0079
1979,2,1,509,-2.3297
1979,2,2,507,-1.8092
1979,2,3,508,-2.2518
1979,2,4,497,-2.8645
1979,2,5,449,-3.0258
1979,2,6,461,-3.4252
1979,2,7,494,-3.6867
1979,2,8,527,-3.9903
1979,2,9,517,-3.9707
1979,2,10,565,-4.2738
1979,3,1,526,9.3363
1979,3,2,525,7.8168
1979,3,3,535,6.6807
1979,3,4,515,5.7476
1979,3,5,467,5.1183
1979,3,6,472,5.3265
1979,3,7,512,5.3480
1979,3,8,535,6.6463
1979,3,9,535,7.8350
1979,3,10,576,10.1763
1979,4,1,535,0.1127
1979,4,2,521,-0.0657
1979,4,3,534,1.0337
1979,4,4,514,0.4196
1979,4,5,468,0.0047
1979,4,6,488,0.4371
1979,4,7,519,-0.1314
1979,4,8,546,0.2551
1979,4,9,536,0.4696
1979,4,10,579,0.5184
1979,5,1,571,-1.1514
1979,5,2,542,-1.3403
1979,5,3,549,-1.7840
1979,5,4,528,-2.0799
1979,5,5,493,-1.2772
1979,5,6,515,-1.5559
1979,5,7,540,-1.7443
1979,5,8,573,-2.0771
1979,5,9,556,-2.1722
1979,5,10,593,-2.2253
1979,6,1,582,6.7410
1979,6,2,554,6.6990
1979,6,3,551,4.9112
1979,6,4,525,3.8135
1979,6,5,505,3.5908
1979,6,6,529,2.9847
1979,6,7,553,3.8460
1979,6,8,583,3.2057
1979,6,9,565,3.7937
1979,6,10,601,4.4362
1979,7,1,590,2.5787
1979,7,2,569,2.3458
1979,7,3,559,1.5044
1979,7,4,525,1.0913
1979,7,5,516,1.4057
1979,7,6,545,0.7900
1979,7,7,557,1.6515
1979,7,8,594,0.9594
1979,7,9,567,1.8832
1979,7,10,601,3.4739
1979,8,1,606,6.7009
1979,8,2,581,6.3740
1979,8,3,565,5.8352
1979,8,4,525,6.1724
1979,8,5,520,6.2851
1979,8,6,544,6.6899
1979,8,7,570,7.3193
1979,8,8,593,7.0039
1979,8,9,576,7.3814
1979,8,10,598,8.6730
1979,9,1,613,-1.3946
1979,9,2,609,-0.9934
1979,9,3,581,-0.1472
1979,9,4,545,-0.4746
1979,9,5,546,-0.7498
1979,9,6,560,-0.7222
1979,9,7,597,0.5991
1979,9,8,605,1.6767
1979,9,9,600,1.5658
1979,9,10,595,1.1490
1979,10,1,596,-10.1986
1979,10,2,622,-7.6155
1979,10,3,589,-6.8307
1979,10,4,568,-6.7242
1979,10,5,555,-6.2001
1979,10,6,581,-6.1325
1979,10,7,603,-7.1793
1979,10,8,610,-6.9917
1979,10,9,614,-7.9292
1979,10,10,608,-8.4585
1979,11,1,587,7.8838
1979,11,2,637,6.4507
1979,11,3,596,5.7978
1979,11,4,578,6.1485
1979,11,5,544,5.2528
1979,11,6,589,5.6106
1979,11,7,601,6.0285
1979,11,8,617,4.7045
1979,11,9,615,5.6996
1979,11,10,617,8.4797
1979,12,1,576,5.7082
1979,12,2,648,2.7173
1979,12,3,596,1.7023
1979,12,4,576,1.6403
1979,12,5,547,1.5428
1979,12,6,601,2.2098
1979,12,7,604,3.7551
1979,12,8,606,2.7532
1979,12,9,619,3.7144
1979,12,10,611,8.1383
1980,1,1,575,7.7342
1980,1,2,658,6.9080
1980,1,3,598,5.3080
1980,1,4,571,5.0540
1980,1,5,549,3.0003
1980,1,6,600,5.1668
1980,1,7,615,7.2097
1980,1,8,602,9.2071
1980,1,9,617,9.7495
1980,1,10,619,13.0233
1980,2,1,563,-3.8508
1980,2,2,645,-3.2148
1980,2,3,587,-2.9656
1980,2,4,552,-2.7511
1980,2,5,547,-3.0714
1980,2,6,588,-2.9183
1980,2,7,611,-1.1715
1980,2,8,595,1.2699
1980,2,9,598,1.6137
1980,2,10,622,3.4612
1980,3,1,551,-15.6862
1980,3,2,635,-11.7998
1980,3,3,577,-10.3469
1980,3,4,545,-8.5326
1980,3,5,532,-6.0812
1980,3,6,590,-9.5840
1980,3,7,596,-11.2779
1980,3,8,589,-12.6896
1980,3,9,585,-14.3529
1980,3,10,607,-18.0956
1980,4,1,557,4.6997
1980,4,2,646,4.0194
1980,4,3,596,5.1808
1980,4,4,559,5.2166
1980,4,5,539,3.9739
1980,4,6,605,4.8604
1980,4,7,614,3.7132
1980,4,8,601,4.4714
1980,4,9,610,4.1845
1980,4,10,610,5.4468
1980,5,1,549,6.8769
1980,5,2,656,5.2684
1980,5,3,602,6.0541
1980,5,4,568,5.8282
1980,5,5,543,5.7492
1980,5,6,604,5.9886
1980,5,7,603,6.1812
1980,5,8,603,5.0543
1980,5,9,608,5.8211
1980,5,10,611,5.7440
1980,6,1,529,2.7987
1980,6,2,653,3.8289
1980,6,3,606,3.7964
1980,6,4,591,2.9635
1980,6,5,551,1.4736
1980,6,6,593,2.7123
1980,6,7,603,2.7504
1980,6,8,601,3.4901
1980,6,9,624,3.4620
1980,6,10,623,4.4701
1980,7,1,522,12.5574
1980,7,2,663,9.7629
1980,7,3,619,8.3359
1980,7,4,605,7.2570
1980,7,5,560,7.3111
1980,7,6,588,8.0903
1980,7,7,609,9.8625
1980,7,8,617,8.0554
1980,7,9,637,7.1382
1980,7,10,631,6.3887
1980,8,1,517,2.8871
1980,8,2,661,2.0828
1980,8,3,604,1.8469
1980,8,4,607,0.9254
1980,8,5,564,0.9622
1980,8,6,584,1.2394
1980,8,7,613,1.8879
1980,8,8,616,2.1949
1980,8,9,630,2.7325
1980,8,10,634,3.6732
1980,9,1,516,0.8069
1980,9,2,646,0.4688
1980,9,3,612,0.9739
1980,9,4,611,1.6041
1980,9,5,577,1.3465
1980,9,6,588,1.8364
1980,9,7,597,3.5081
1980,9,8,610,4.7232
1980,9,9,617,5.3971
1980,9,10,636,5.7505
1980,10,1,518,-1.8465
1980,10,2,643,0.1370
1980,10,3,624,0.1281
1980,10,4,621,1.0551
1980,10,5,586,-0.1944
1980,10,6,577,0.1109
1980,10,7,590,1.0842
1980,10,8,610,4.0474
1980,10,9,623,4.0695
1980,10,10,641,5.1619
1980,11,1,521,1.8311
1980,11,2,653,5.0286
1980,11,3,630,6.6070
1980,11,4,625,7.2412
1980,11,5,595,7.5378
1980,11,6,564,8.0894
1980,11,7,582,10.3619
1980,11,8,617,14.0102
1980,11,9,626,16.4330
1980,11,10,642,18.3420
1980,12,1,533,-3.3773
1980,12,2,647,-2.6080
1980,12,3,625,-2.0484
1980,12,4,640,-1.1811
1980,12,5,600,-0.7080
1980,12,6,573,-0.7570
1980,12,7,580,-2.1005
1980,12,8,630,-5.0213
1980,12,9,640,-5.3889
1980,12,10,647,-6.4297
1981,1,1,519,0.4039
1981,1,2,633,-0.6490
1981,1,3,631,-2.3512
1981,1,4,637,-3.4207
1981,1,5,599,-3.2580
1981,1,6,560,-2.4927
1981,1,7,584,-4.6082
1981,1,8,629,-6.0614
1981,1,9,629,-6.9707
1981,1,10,653,-6.2043
1981,2,1,525,3.4233
1981,2,2,629,3.0910
1981,2,3,639,3.0015
1981,2,4,645,2.5544
1981,2,5,611,2.1235
1981,2,6,572,2.0684
1981,2,7,595,1.6598
1981,2,8,621,1.7261
1981,2,9,636,1.3328
1981,2,10,637,0.8988
1981,3,1,522,11.0023
1981,3,2,632,8.3991
1981,3,3,649,6.8129
1981,3,4,644,5.8755
1981,3,5,619,4.7058
1981,3,6,577,3.6343
1981,3,7,605,3.9971
1981,3,8,628,3.0482
1981,3,9,644,3.1874
1981,3,10,651,5.5526
1981,4,1,531,1.0801
1981,4,2,644,0.1672
1981,4,3,658,-0.6926
1981,4,4,654,-0.2337
1981,4,5,617,-0.6935
1981,4,6,574,0.2643
1981,4,7,608,-1.4963
1981,4,8,634,-2.3508
1981,4,9,645,-3.2040
1981,4,10,661,-2.4479
1981,5,1,566,3.1911
1981,5,2,664,1.0093
1981,5,3,669,0.4957
1981,5,4,658,0.5780
1981,5,5,626,0.6431
1981,5,6,572,1.2791
1981,5,7,613,1.2137
1981,5,8,648,0.2356
1981,5,9,658,0.4713
1981,5,10,671,1.3550
1981,6,1,586,-3.3730
1981,6,2,654,-0.4665
1981,6,3,670,-0.6668
1981,6,4,642,-0.2596
1981,6,5,620,-0.9997
1981,6,6,569,-1.7225
1981,6,7,621,-1.4352
1981,6,8,651,-1.9332
1981,6,9,657,-1.3380
1981,6,10,678,-3.7234
1981,7,1,594,-3.4900
1981,7,2,657,-1.9510
1981,7,3,662,-1.6958
1981,7,4,631,-1.0045
1981,7,5,620,-1.3732
1981,7,6,567,-1.0196
1981,7,7,613,-0.1407
1981,7,8,656,1.0587
1981,7,9,680,1.7592
1981,7,10,685,0.8927
1981,8,1,603,-8.2421
1981,8,2,667,-7.7153
1981,8,3,670,-6.3403
1981,8,4,632,-6.1447
1981,8,5,616,-5.8802
1981,8,6,549,-4.7063
1981,8,7,610,-5.1082
1981,8,8,648,-5.8475
1981,8,9,678,-6.7010
1981,8,10,676,-7.2571
1981,9,1,604,-9.0742
1981,9,2,678,-7.8761
1981,9,3,674,-7.5375
1981,9,4,642,-5.3068
1981,9,5,619,-5.7491
1981,9,6,539,-2.9024
1981,9,7,608,-5.3691
1981,9,8,648,-6.1711
1981,9,9,676,-7.3550
1981,9,10,694,-7.4012
1981,10,1,593,1.2159
1981,10,2,665,2.9481
1981,10,3,658,5.6544
1981,10,4,638,4.5159
1981,10,5,619,5.2327
1981,10,6,532,5.1930
1981,10,7,593,5.8234
1981,10,8,642,7.0343
1981,10,9,669,6.1623
1981,10,10,699,8.3295
1981,11,1,597,3.3107
1981,11,2,675,6.3804
1981,11,3,663,5.5186
1981,11,4,635,5.2232
1981,11,5,632,4.1339
1981,11,6,553,3.7989
1981,11,7,591,3.4346
1981,11,8,646,3.6184
1981,11,9,666,4.1609
1981,11,10,704,3.6767
1981,12,1,583,-3.6200
1981,12,2,676,-2.2234
1981,12,3,658,-2.4941
1981,12,4,650,-1.9236
1981,12,5,643,-1.5361
1981,12,6,565,-2.4609
1981,12,7,589,-2.3808
1981,12,8,648,-2.4843
1981,12,9,676,-3.0680
1981,12,10,728,-2.7333
1982,1,1,582,-3.0778
1982,1,2,674,-4.3752
1982,1,3,653,-2.2419
1982,1,4,650,-1.3015
1982,1,5,640,-0.7953
1982,1,6,585,-0.9470
1982,1,7,584,-1.5182
1982,1,8,636,-1.7747
1982,1,9,670,-3.0192
1982,1,10,708,-4.6011
1982,2,1,569,-4.8789
1982,2,2,654,-4.5209
1982,2,3,637,-5.3459
1982,2,4,645,-4.6065
1982,2,5,631,-4.3165
1982,2,6,585,-4.3240
1982,2,7,568,-3.8454
1982,2,8,636,-5.0001
1982,2,9,659,-5.7132
1982,2,10,723,-5.8331
1982,3,1,570,0.5491
1982,3,2,641,-0.1334
1982,3,3,634,-1.1810
1982,3,4,650,-1.4265
1982,3,5,640,-0.8104
1982,3,6,594,-0.0477
1982,3,7,559,-0.1751
1982,3,8,636,-0.5289
1982,3,9,660,-0.8890
1982,3,10,716,-1.9741
1982,4,1,560,5.2396
1982,4,2,638,4.2093
1982,4,3,661,4.7524
1982,4,4,664,4.6070
1982,4,5,652,5.2661
1982,4,6,618,3.9369
1982,4,7,562,4.4725
1982,4,8,627,4.3506
1982,4,9,674,5.1948
1982,4,10,726,4.6304
1982,5,1,564,-3.4520
1982,5,2,637,-4.7673
1982,5,3,664,-2.7288
1982,5,4,679,-2.6168
1982,5,5,652,-2.4078
1982,5,6,634,-2.8520
1982,5,7,566,-2.6542
1982,5,8,624,-3.2935
1982,5,9,664,-3.8629
1982,5,10,736,-4.0266
1982,6,1,561,-0.8119
1982,6,2,666,-1.6772
1982,6,3,678,-1.9822
1982,6,4,696,-1.4493
1982,6,5,677,-2.0305
1982,6,6,655,-1.8131
1982,6,7,580,-0.8389
1982,6,8,625,-1.7175
1982,6,9,670,-1.2197
1982,6,10,752,-2.5296
1982,7,1,555,-2.9042
1982,7,2,669,-3.2180
1982,7,3,671,-3.4568
1982,7,4,699,-2.9187
1982,7,5,670,-1.9487
1982,7,6,654,-0.9381
1982,7,7,578,-0.8739
1982,7,8,606,-1.2184
1982,7,9,648,-2.7532
1982,7,10,763,-2.9344
1982,8,1,560,13.5729
1982,8,2,681,15.3772
1982,8,3,690,14.4666
1982,8,4,713,13.0594
1982,8,5,682,12.9340
1982,8,6,674,12.6746
1982,8,7,603,12.2299
1982,8,8,602,11.3981
1982,8,9,650,11.4075
1982,8,10,782,10.6178
1982,9,1,560,-2.6353
1982,9,2,684,-1.2396
1982,9,3,698,0.5632
1982,9,4,715,0.8799
1982,9,5,685,1.2968
1982,9,6,683,0.8397
1982,9,7,613,1.3931
1982,9,8,587,1.3070
1982,9,9,653,1.4267
1982,9,10,789,1.3981
1982,10,1,574,16.7484
1982,10,2,700,14.6865
1982,10,3,720,12.7149
1982,10,4,711,11.5826
1982,10,5,702,12.2535
1982,10,6,694,10.2848
1982,10,7,624,10.8791
1982,10,8,587,11.0945
1982,10,9,672,11.2220
1982,10,10,805,13.9987
1982,11,1,584,7.0380
1982,11,2,707,6.7403
1982,11,3,720,4.0338
1982,11,4,708,3.7286
1982,11,5,710,3.6630
1982,11,6,697,4.4413
1982,11,7,626,5.4394
1982,11,8,562,5.9603
1982,11,9,659,6.1784
1982,11,10,813,7.9086
1982,12,1,596,3.4278
1982,12,2,734,2.2915
1982,12,3,725,2.1056
1982,12,4,705,1.7452
1982,12,5,722,0.8762
1982,12,6,714,0.5511
1982,12,7,641,1.2184
1982,12,8,565,1.4547
1982,12,9,665,1.4870
1982,12,10,808,0.2912
1983,1,1,598,7.2006
1983,1,2,738,6.3649
1983,1,3,731,5.4492
1983,1,4,719,4.0879
1983,1,5,727,4.5383
1983,1,6,720,5.7848
1983,1,7,643,3.7208
1983,1,8,560,3.2992
1983,1,9,677,3.4943
1983,1,10,818,3.7746
1983,2,1,600,2.8901
1983,2,2,739,3.2309
1983,2,3,731,3.1149
1983,2,4,708,2.6015
1983,2,5,724,3.4205
1983,2,6,715,2.1101
1983,2,7,638,2.5926
1983,2,8,563,2.8924
1983,2,9,657,3.8558
1983,2,10,818,5.0154
1983,3,1,596,3.3823
1983,3,2,744,1.5504
1983,3,3,750,3.3206
1983,3,4,701,2.3521
1983,3,5,710,3.0290
1983,3,6,709,2.5230
1983,3,7,643,2.5308
1983,3,8,569,2.7139
1983,3,9,661,3.6033
1983,3,10,829,3.5475
1983,4,1,597,6.1728
1983,4,2,749,6.8017
1983,4,3,751,7.9833
1983,4,4,702,7.5573
1983,4,5,720,7.3712
1983,4,6,710,6.2204
1983,4,7,639,6.7088
1983,4,8,566,6.7792
1983,4,9,660,6.9730
1983,4,10,829,8.2137
1983,5,1,608,6.0811
1983,5,2,762,5.4432
1983,5,3,763,2.5982
1983,5,4,709,1.4551
1983,5,5,730,1.5859
1983,5,6,702,0.7382
1983,5,7,639,-0.6042
1983,5,8,579,-1.7238
1983,5,9,674,0.8513
1983,5,10,840,3.3391
1983,6,1,596,2.2559
1983,6,2,758,4.1946
1983,6,3,764,5.2069
1983,6,4,737,4.5018
1983,6,5,736,4.1266
1983,6,6,695,3.7202
1983,6,7,634,4.0178
1983,6,8,605,4.2899
1983,6,9,690,4.5818
1983,6,10,840,5.4790
1983,7,1,593,-2.9811
1983,7,2,758,-3.4069
1983,7,3,766,-3.4087
1983,7,4,749,-3.7050
1983,7,5,750,-3.3943
1983,7,6,706,-3.8990
1983,7,7,634,-3.5894
1983,7,8,636,-2.9298
1983,7,9,721,-2.6423
1983,7,10,840,-3.8885
1983,8,1,590,0.8544
1983,8,2,756,1.6555
1983,8,3,763,1.6452
1983,8,4,752,2.3662
1983,8,5,758,1.6813
1983,8,6,687,1.2949
1983,8,7,617,0.3625
1983,8,8,650,-0.2989
1983,8,9,727,-1.4951
1983,8,10,838,-2.4174
1983,9,1,586,0.0357
1983,9,2,757,0.1839
1983,9,3,756,0.3277
1983,9,4,754,0.4762
1983,9,5,758,1.9742
1983,9,6,690,1.9867
1983,9,7,610,2.6815
1983,9,8,655,2.8224
1983,9,9,731,2.5745
1983,9,10,846,1.8520
1983,10,1,594,-5.8123
1983,10,2,748,-4.9011
1983,10,3,757,-4.3407
1983,10,4,771,-3.7516
1983,10,5,747,-2.8572
1983,10,6,670,-1.7779
1983,10,7,603,-0.6873
1983,10,8,674,-1.0746
1983,10,9,741,-1.6448
1983,10,10,868,-3.4463
1983,11,1,611,6.3254
1983,11,2,768,4.8933
1983,11,3,763,4.0247
1983,11,4,789,3.3317
1983,11,5,743,3.2247
1983,11,6,656,2.5441
1983,11,7,593,1.3314
1983,11,8,685,1.7401
1983,11,9,759,3.3104
1983,11,10,877,4.1696
1983,12,1,628,1.3788
1983,12,2,769,0.7337
1983,12,3,761,0.2328
1983,12,4,790,-0.2993
1983,12,5,733,-1.4347
1983,12,6,634,-1.2849
1983,12,7,574,-0.9524
1983,12,8,685,-1.5139
1983,12,9,774,-2.3865
1983,12,10,896,-1.4448
1984,1,1,666,-1.2406
1984,1,2,785,-0.1091
1984,1,3,782,-0.2955
1984,1,4,787,-0.6374
1984,1,5,734,1.0084
1984,1,6,623,-0.9196
1984,1,7,572,-2.6358
1984,1,8,697,-3.0685
1984,1,9,774,-3.5582
1984,1,10,907,-4.6030
1984,2,1,682,-6.6185
1984,2,2,782,-5.4439
1984,2,3,781,-5.0700
1984,2,4,784,-3.9058
1984,2,5,725,-3.2474
1984,2,6,604,-3.1247
1984,2,7,574,-4.1746
1984,2,8,692,-4.4358
1984,2,9,768,-4.7427
1984,2,10,913,-6.1409
1984,3,1,687,4.8054
1984,3,2,778,3.3475
1984,3,3,769,2.6640
1984,3,4,781,1.3016
1984,3,5,712,0.1229
1984,3,6,593,0.4637
1984,3,7,573,1.4999
1984,3,8,688,1.5628
1984,3,9,780,0.8103
1984,3,10,910,1.3843
1984,4,1,724,-1.3770
1984,4,2,804,-1.3868
1984,4,3,779,-0.3503
1984,4,4,783,1.1171
1984,4,5,714,1.1431
1984,4,6,581,1.4861
1984,4,7,569,1.2698
1984,4,8,696,0.8465
1984,4,9,783,0.5237
1984,4,10,911,-0.1024
1984,5,1,752,-8.7924
1984,5,2,812,-6.4244
1984,5,3,805,-5.9953
1984,5,4,798,-6.4644
1984,5,5,717,-4.7137
1984,5,6,571,-4.2643
1984,5,7,579,-3.8674
1984,5,8,727,-4.7552
1984,5,9,790,-5.6788
1984,5,10,936,-5.9312
1984,6,1,782,-0.5977
1984,6,2,838,0.9099
1984,6,3,834,0.9651
1984,6,4,790,2.2815
1984,6,5,701,3.5479
1984,6,6,542,3.5102
1984,6,7,592,2.5784
1984,6,8,730,3.5911
1984,6,9,795,3.4174
1984,6,10,949,2.2652
1984,7,1,790,-9.4762
1984,7,2,852,-4.8099
1984,7,3,857,-3.6542
1984,7,4,785,-3.1422
1984,7,5,700,-1.9923
1984,7,6,534,-1.1109
1984,7,7,585,0.5197
1984,7,8,720,-1.5097
1984,7,9,803,-1.2251
1984,7,10,961,-2.1926
1984,8,1,815,14.2693
1984,8,2,865,12.0976
1984,8,3,875,12.6175
1984,8,4,801,12.3379
1984,8,5,694,10.7605
1984,8,6,535,9.4543
1984,8,7,584,10.8034
1984,8,8,724,11.8445
1984,8,9,797,12.1636
1984,8,10,958,13.2324
1984,9,1,834,-2.3463
1984,9,2,870,-1.3132
1984,9,3,895,-1.5896
1984,9,4,803,-1.2825
1984,9,5,710,-0.6373
1984,9,6,528,0.0089
1984,9,7,576,0.2092
1984,9,8,727,-0.5180
1984,9,9,819,-0.6536
1984,9,10,977,-0.8625
1984,10,1,848,-4.9767
1984,10,2,872,-2.1160
1984,10,3,919,-1.4803
1984,10,4,796,-0.8022
1984,10,5,726,0.5873
1984,10,6,541,1.2653
1984,10,7,586,1.2472
1984,10,8,749,0.6127
1984,10,9,835,0.9592
1984,10,10,964,-0.5868
1984,11,1,870,-3.0101
1984,11,2,875,-1.7060
1984,11,3,912,-1.2073
1984,11,4,798,-1.4068
1984,11,5,728,-0.9523
1984,11,6,558,-0.7433
1984,11,7,597,-0.8715
1984,11,8,738,-0.9695
1984,11,9,821,-0.9865
1984,11,10,962,-1.5640
1984,12,1,887,-0.6019
1984,12,2,888,1.7358
1984,12,3,927,1.6612
1984,12,4,804,0.8765
1984,12,5,721,1.9728
1984,12,6,581,2.5896
1984,12,7,588,2.6161
1984,12,8,748,3.0129
1984,12,9,818,3.3792
1984,12,10,945,3.2307
1985,1,1,891,13.4866
1985,1,2,890,10.8940
1985,1,3,930,9.2748
1985,1,4,804,8.1763
1985,1,5,751,7.1812
1985,1,6,615,7.2360
1985,1,7,584,7.5852
1985,1,8,735,7.8647
1985,1,9,818,8.2291
1985,1,10,958,9.5793
1985,2,1,902,0.8348
1985,2,2,892,0.6648
1985,2,3,934,1.6292
1985,2,4,805,2.0376
1985,2,5,762,1.6475
1985,2,6,616,2.1024
1985,2,7,573,1.5085
1985,2,8,713,1.1690
1985,2,9,800,1.0663
1985,2,10,971,1.2444
1985,3,1,904,-0.7439
1985,3,2,915,-0.4861
1985,3,3,920,-0.6864
1985,3,4,805,-0.1477
1985,3,5,767,-0.0388
1985,3,6,638,-0.4386
1985,3,7,588,0.3192
1985,3,8,708,0.2093
1985,3,9,804,-1.4896
1985,3,10,981,-1.3018
1985,4,1,926,-2.5642
1985,4,2,909,-2.0623
1985,4,3,908,-0.9768
1985,4,4,808,-0.4081
1985,4,5,778,-1.1231
1985,4,6,666,-1.5938
1985,4,7,576,-0.6199
1985,4,8,685,-0.5682